Zurück zum Katalog

STARLINK-2474

AktivKommunikationVLEO
NORAD 48132·PAYLOAD·🇺🇸 United States

Gestartet Apr 7, 2021 von Cape Canaveral Space Force Station

Loading…

Nächste Überflüge (nächste 24 Stunden)

TLE

AktuellSource: CelesTrak SupGP

Epoche: Sep 14, 2026, 13:00 UTC

1 48132C 21027AS  26257.54215278 -.00021955  00000+0 -70620-3 0  2574
2 48132  53.1600   8.9074 0001172  75.2249 338.9256 15.31704230    16

Verfolge STARLINK-2474 in Echtzeit mit AllMySat

Download on the App Store